Weather History for Pecs, Hungary

Change the Weather History Date:

Thursday, October 31, 2013

  Actual Average Record
Temperature  
Mean Temperature 52 °F -  
Max Temperature 56 °F 48 °F - ()
Min Temperature 48 °F 36 °F - ()
Degree Days  
Heating Degree Days 13    
Growing Degree Days 2 (Base 50)    
Moisture  
Dew Point 42 °F    
Average Humidity 66    
Maximum Humidity 77    
Minimum Humidity 49    
Precipitation  
Precipitation 0.00 in 0.07 in - ()
Sea Level Pressure  
Sea Level Pressure 30.33 in    
Wind  
Wind Speed 4 mph ()    
Max Wind Speed 10 mph    
Max Gust Speed -    
T = Trace of Precipitation, MM = Missing Value Source: Averaged Metar Reports

Daily Weather History Graph

Daily Weather History Graph

Search for Another Location

Airport:

Trip Planner

Search our weather history database for the weather conditions in past years. The results will help you decide how hot, cold, wet, or windy it might be!

Date:

Astronomy

Oct. 31, 2013 Rise Set
Actual Time 6:26 AM CET 4:34 PM CET
Civil Twilight 5:54 AM CET 5:05 PM CET
Nautical Twilight 5:19 AM CET 5:40 PM CET
Astronomical Twilight 4:44 AM CET 6:15 PM CET
Moon 2:46 AM CET (10/31) 2:51 PM CET (10/31)
Length of Visible Light 11h 10m
Length of Day
10h 08m
Waning Crescent, 11% of the Moon is Illuminated
Oct 31
Waning Crescent
Nov 3
New
Nov 10
First Quarter
Nov 17
Full
Nov 25
Last Quarter

Hourly Weather History & Observations

Time (CET) Temp. Dew Point Humidity Pressure Visibility Wind Dir Wind Speed Gust Speed Precip Events Conditions
12:45 AM 50.0 °F 41.0 °F 71% 30.33 in - North 8.1 mph - N/A   Clear
1:00 AM 49 °F 41 °F 65% 30.35 in 31 mi North 8.9 mph - -   Partly Cloudy
1:45 AM 50.0 °F 41.0 °F 71% 30.33 in - North 10.4 mph - N/A   Clear
2:45 AM 50.0 °F 41.0 °F 71% 30.33 in - North 9.2 mph - N/A   Clear
3:45 AM 50.0 °F 41.0 °F 71% 30.33 in - North 5.8 mph - N/A   Clear
4:45 AM 50.0 °F 41.0 °F 71% 30.33 in - NNE 4.6 mph - N/A   Clear
5:15 AM 50.0 °F 41.0 °F 71% 30.36 in - East 2.3 mph - N/A   Clear
5:45 AM 50.0 °F 41.0 °F 71% 30.36 in - South 1.2 mph - N/A   Clear
6:00 AM - - N/A% - - Variable 2.3 mph - N/A   Clear
6:15 AM 50.0 °F 41.0 °F 71% 30.36 in - ENE 4.6 mph - N/A   Clear
6:45 AM 50.0 °F 39.2 °F 66% 30.36 in - Calm Calm - N/A   Clear
7:00 AM 49 °F 40 °F 61% 30.37 in 31 mi Calm Calm - -   Partly Cloudy
7:15 AM 50.0 °F 41.0 °F 71% 30.36 in - East 2.3 mph - N/A   Clear
7:45 AM 50.0 °F 39.2 °F 66% 30.36 in - East 2.3 mph - N/A   Clear
8:15 AM 50.0 °F 41.0 °F 71% 30.36 in - ENE 5.8 mph - N/A   Clear
8:45 AM 51.8 °F 41.0 °F 67% 30.36 in - ENE 6.9 mph - N/A   Clear
9:00 AM - - N/A% - - East 5.8 mph - N/A   Dust Whirls
9:15 AM 51.8 °F 41.0 °F 67% 30.36 in - ENE 6.9 mph - N/A   Clear
9:45 AM 51.8 °F 41.0 °F 67% 30.36 in - East 5.8 mph - N/A   Clear
10:15 AM 53.6 °F 41.0 °F 62% 30.36 in - East 5.8 mph - N/A   Clear
10:45 AM 53.6 °F 41.0 °F 62% 30.36 in - SE 4.6 mph - N/A   Clear
11:15 AM 53.6 °F 42.8 °F 67% 30.36 in - SE 5.8 mph - N/A   Clear
11:45 AM 55.4 °F 41.0 °F 58% 30.36 in - SSE 4.6 mph - N/A   Clear
12:00 PM - - N/A% - - ESE 5.8 mph - N/A   Dust Whirls
12:15 PM 55.4 °F 41.0 °F 58% 30.36 in - South 5.8 mph - N/A   Clear
12:45 PM 55.4 °F 41.0 °F 58% 30.33 in - South 3.5 mph - N/A   Clear
1:00 PM 54 °F 40 °F 49% 30.35 in 31 mi South 4.5 mph - -   Partly Cloudy
1:15 PM 55.4 °F 42.8 °F 63% 30.33 in - South 3.5 mph - N/A   Clear
1:45 PM 55.4 °F 42.8 °F 63% 30.33 in - South 3.5 mph - N/A   Clear
2:15 PM 57.2 °F 42.8 °F 59% 30.30 in - South 3.5 mph - N/A   Clear
2:45 PM 57.2 °F 42.8 °F 59% 30.30 in - SSW 2.3 mph - N/A   Clear
3:00 PM - - N/A% - - Variable 3.5 mph - N/A   Dust Whirls
3:15 PM 57.2 °F 44.6 °F 63% 30.30 in - Calm Calm - N/A   Clear
3:45 PM 57.2 °F 44.6 °F 63% 30.30 in - South 1.2 mph - N/A   Clear
4:00 PM 56 °F 44 °F 54% 30.31 in 31 mi South 2.2 mph - -   Partly Cloudy
4:15 PM 55.4 °F 44.6 °F 67% 30.30 in - West 2.3 mph - N/A   Clear
4:45 PM 55.4 °F 44.6 °F 67% 30.30 in - NNW 3.5 mph - N/A   Clear
5:15 PM 55.4 °F 42.8 °F 63% 30.30 in - NNW 3.5 mph - N/A   Clear
5:45 PM 55.4 °F 42.8 °F 63% 30.30 in - NNW 2.3 mph - N/A   Clear
6:15 PM 53.6 °F 44.6 °F 72% 30.30 in - NNW 1.2 mph - N/A   Clear
6:45 PM 55.4 °F 42.8 °F 63% 30.30 in - NE 1.2 mph - N/A   Clear
7:00 PM 54 °F 43 °F 57% 30.31 in 31 mi NE 2.2 mph - -   Partly Cloudy
7:15 PM 53.6 °F 46.4 °F 77% 30.30 in - Calm Calm - N/A   Clear
7:45 PM 53.6 °F 44.6 °F 72% 30.30 in - Calm Calm - N/A   Clear
8:15 PM 53.6 °F 44.6 °F 72% 30.30 in - Calm Calm - N/A   Clear
8:45 PM 53.6 °F 42.8 °F 67% 30.30 in - SE 1.2 mph - N/A   Clear
9:45 PM 50.0 °F 42.8 °F 76% 30.30 in - NE 4.6 mph - N/A   Clear
10:45 PM 50.0 °F 42.8 °F 76% 30.30 in - ENE 4.6 mph - N/A   Clear
11:45 PM 50.0 °F 42.8 °F 76% 30.27 in - ENE 2.3 mph - N/A   Clear